Ontario, OR

11:41 AM MST on January 17, 2017 (GMT -0700)
Ontario Municipal

Weather History for KONO - July, 2013

Change the Weather History Date:

Sunday, July 14, 2013

  Actual Average Record
Temperature  
Mean Temperature 76 °F 76 °F  
Max Temperature 94 °F 94 °F 107 °F (2002)
Min Temperature 58 °F 59 °F 44 °F (1977)
Degree Days  
Heating Degree Days 0 0  
Month to date heating degree days 0 0  
Since 1 June heating degree days 39 52  
Since 1 July heating degree days 0 0  
Cooling Degree Days 11 11  
Month to date cooling degree days 220 138  
Year to date cooling degree days 471 313  
Since 1 June cooling degree days 424 277  
Growing Degree Days 27 (Base 50)    
Moisture  
Dew Point 43 °F    
Average Humidity 32    
Maximum Humidity 48    
Minimum Humidity 15    
Precipitation  
Precipitation 0.00 in 0.01 in 0.09 in (1983)
Month to date precipitation 0.00 0.18  
Year to date precipitation 2.61 5.94  
Sea Level Pressure  
Sea Level Pressure 29.95 in    
Wind  
Wind Speed 4 mph (WSW)    
Max Wind Speed 14 mph    
Max Gust Speed 18 mph    
Visibility 10 miles    
Events      
T = Trace of Precipitation, MM = Missing Value Source: NWS Daily Summary

Daily Weather History Graph

Daily Weather History Graph

Search for Another Location

Airport or City:

Trip Planner

Search our weather history database for the weather conditions in past years. The results will help you decide how hot, cold, wet, or windy it might be!

Date:

Astronomy

Jul. 14, 2013 Rise Set
Actual Time 6:18 AM MDT 9:28 PM MDT
Civil Twilight 5:43 AM MDT 10:03 PM MDT
Nautical Twilight 4:58 AM MDT 10:48 PM MDT
Astronomical Twilight 4:03 AM MDT 11:43 PM MDT
Moon 12:55 PM MDT (7/14) No Moon Set
Length of Visible Light 16h 20m
Length of Day
15h 10m
Waxing Crescent, 35% of the Moon is Illuminated
Jul 14
Waxing Crescent
Jul 15
First Quarter
Jul 22
Full
Jul 29
Last Quarter
Aug 6
New

Hourly Weather History & Observations

Time (MDT) Temp. Heat Index Dew Point Humidity Pressure Visibility Wind Dir Wind Speed Gust Speed Precip Events Conditions
12:53 AM 70.0 °F - 36.0 °F 29% 29.96 in 10.0 mi WNW 5.8 mph - N/A   Clear
1:53 AM 66.9 °F - 34.0 °F 30% 29.97 in 10.0 mi NW 4.6 mph - N/A   Clear
3:53 AM 69.1 °F - 36.0 °F 30% 30.00 in 10.0 mi NW 12.7 mph - N/A   Clear
4:53 AM 68.0 °F - 36.0 °F 31% 30.01 in 10.0 mi NNW 6.9 mph - N/A   Unknown
5:53 AM 63.0 °F - 41.0 °F 45% 30.03 in 10.0 mi SE 3.5 mph - N/A   Clear
6:53 AM 61.0 °F - 39.0 °F 44% 30.03 in 10.0 mi West 4.6 mph - N/A   Clear
7:53 AM 64.9 °F - 45.0 °F 48% 30.04 in 10.0 mi WSW 4.6 mph - N/A   Clear
8:53 AM 71.1 °F - 44.1 °F 38% 30.04 in 10.0 mi WSW 5.8 mph - N/A   Clear
9:53 AM 77.0 °F - 43.0 °F 30% 30.04 in 10.0 mi WSW 8.1 mph - N/A   Clear
10:53 AM 82.0 °F - 41.0 °F 23% 30.03 in 10.0 mi West 3.5 mph - N/A   Clear
11:53 AM 84.9 °F - 41.0 °F 21% 30.01 in 10.0 mi WSW 5.8 mph - N/A   Clear
12:53 PM 88.0 °F - 39.0 °F 18% 29.99 in 10.0 mi WSW 5.8 mph - N/A   Clear
1:53 PM 91.0 °F - 43.0 °F 19% 29.97 in 10.0 mi ESE 3.5 mph - N/A   Clear
2:53 PM 91.0 °F - 41.0 °F 17% 30.00 in 10.0 mi SSE 3.5 mph - N/A   Clear
3:53 PM 91.9 °F - 41.0 °F 17% 29.92 in 10.0 mi ESE 3.5 mph - N/A   Clear
4:53 PM 93.0 °F - 39.0 °F 15% 29.89 in 10.0 mi ESE 3.5 mph - N/A   Clear
5:53 PM 91.9 °F - 45.0 °F 20% 29.87 in 10.0 mi ESE 4.6 mph - N/A   Clear
6:53 PM 91.0 °F - 48.9 °F 23% 29.84 in 10.0 mi ESE 3.5 mph - N/A   Clear
7:53 PM 91.0 °F - 48.0 °F 23% 29.83 in 10.0 mi Calm Calm - N/A   Clear
8:53 PM 89.1 °F - 48.0 °F 24% 29.81 in 10.0 mi Calm Calm - N/A   Clear
9:53 PM 80.1 °F 79.9 °F 53.1 °F 39% 29.82 in 10.0 mi Calm Calm - N/A   Clear
10:53 PM 73.0 °F - 51.1 °F 46% 29.84 in 10.0 mi West 3.5 mph - N/A   Clear
11:53 PM 72.0 °F - 45.0 °F 38% 29.84 in 10.0 mi West 3.5 mph - N/A   Clear